Weather History for KS32 - December, 2013

Change the Weather History Date:

Monday, December 16, 2013

  Actual Average (KJMS) Record (KJMS)
Temperature  
Mean Temperature 16 °F 14 °F  
Max Temperature 32 °F 23 °F 60 °F (1962)
Min Temperature 1 °F 5 °F -22 °F (2008)
Degree Days  
Heating Degree Days 48 51  
Month to date heating degree days 780  
Since 1 July heating degree days 2864  
Cooling Degree Days 0 0  
Month to date cooling degree days 0  
Year to date cooling degree days 446  
Moisture  
Dew Point 19 °F    
Average Humidity 94    
Maximum Humidity 100    
Minimum Humidity 80    
Precipitation  
Precipitation 0.13 in 0.01 in 0.30 in (1996)
Month to date precipitation 0.20  
Year to date precipitation 18.57  
Sea Level Pressure  
Sea Level Pressure 29.81 in    
Wind  
Wind Speed 17 mph (West)    
Max Wind Speed 32 mph    
Max Gust Speed 39 mph    
Visibility 8 miles    
Events Rain , Snow    
T = Trace of Precipitation, MM = Missing Value Source: NWS Daily Summary

Daily Weather History Graph

Daily Weather History Graph

Search for Another Location

Airport or City:

Trip Planner

Search our weather history database for the weather conditions in past years. The results will help you decide how hot, cold, wet, or windy it might be!

Date:

Astronomy

Dec. 16, 2013 Rise Set
Actual Time 8:14 AM CST 4:42 PM CST
Civil Twilight 7:38 AM CST 5:18 PM CST
Nautical Twilight 6:59 AM CST 5:57 PM CST
Astronomical Twilight 6:21 AM CST 6:34 PM CST
Moon 4:37 PM CST (12/16) 7:19 AM CST (12/16)
Length of Visible Light 9h 39m
Length of Day
8h 28m
Full, 100% of the Moon is Illuminated
Dec 16
Full
Dec 17
Full
Dec 25
Last Quarter
Jan 1
New
Jan 7
First Quarter

Hourly Weather History & Observations

Time (CST) Temp. Windchill Dew Point Humidity Pressure Visibility Wind Dir Wind Speed Gust Speed Precip Events Conditions
12:15 AM 1.4 °F -18.8 °F -0.4 °F 92% 29.86 in 7.0 mi South 17.3 mph - N/A   Overcast
12:35 AM 1.4 °F -17.6 °F -0.4 °F 92% 29.87 in 8.0 mi South 15.0 mph - N/A   Overcast
12:55 AM 1.4 °F -18.8 °F -0.4 °F 92% 29.83 in 7.0 mi South 17.3 mph - N/A   Overcast
1:15 AM 1.4 °F -18.2 °F -0.4 °F 92% 29.83 in 8.0 mi South 16.1 mph - N/A   Overcast
1:35 AM 1.4 °F -18.2 °F -0.4 °F 92% 29.82 in 9.0 mi South 16.1 mph - N/A   Overcast
1:55 AM 3.2 °F -17.1 °F 1.4 °F 92% 29.81 in 9.0 mi South 18.4 mph - N/A   Overcast
2:15 AM 3.2 °F -15.3 °F 1.4 °F 92% 29.79 in 10.0 mi South 15.0 mph - N/A   Overcast
2:35 AM 3.2 °F -13.9 °F 1.4 °F 92% 29.78 in 10.0 mi South 12.7 mph - N/A   Overcast
2:55 AM 3.2 °F -13.9 °F 1.4 °F 92% 29.80 in 10.0 mi South 12.7 mph - N/A   Mostly Cloudy
3:15 AM 3.2 °F -12.2 °F 1.4 °F 92% 29.83 in 10.0 mi SW 10.4 mph - N/A   Partly Cloudy
3:35 AM 5.0 °F -12.3 °F 3.2 °F 92% 29.80 in 10.0 mi South 13.8 mph - N/A   Scattered Clouds
4:15 AM 8.6 °F -5.5 °F 6.8 °F 92% 29.81 in 3.0 mi SW 10.4 mph - N/A Snow Light Snow
4:35 AM 8.6 °F -7.0 °F 8.6 °F 100% 29.80 in 0.8 mi SSW 12.7 mph - 0.04 in Snow Light Snow
4:55 AM 8.6 °F -7.7 °F 8.6 °F 100% 29.78 in 1.0 mi SSW 13.8 mph - 0.05 in Snow Light Snow
5:15 AM 8.6 °F -9.5 °F 8.6 °F 100% 29.74 in 0.5 mi SSW 17.3 mph - 0.02 in Snow Snow
5:35 AM 10.4 °F -6.6 °F 8.6 °F 92% 29.77 in 2.5 mi SW 16.1 mph - 0.02 in Snow Light Snow
5:55 AM 10.4 °F -4.1 °F 10.4 °F 100% 29.77 in 5.0 mi SW 11.5 mph - 0.03 in   Overcast
6:15 AM 10.4 °F -4.1 °F 8.6 °F 92% 29.76 in 10.0 mi SW 11.5 mph - N/A   Mostly Cloudy
6:35 AM 10.4 °F -4.1 °F 10.4 °F 100% 29.76 in 10.0 mi SW 11.5 mph - N/A   Mostly Cloudy
6:55 AM 12.2 °F -2.5 °F 10.4 °F 92% 29.77 in 10.0 mi SW 12.7 mph - N/A   Overcast
7:15 AM 14.0 °F 2.0 °F 14.0 °F 100% 29.77 in 7.0 mi SW 9.2 mph - N/A   Overcast
7:35 AM 14.0 °F 2.0 °F 14.0 °F 100% 29.77 in 4.0 mi WSW 9.2 mph - N/A   Overcast
7:55 AM 14.0 °F 2.9 °F 14.0 °F 100% 29.78 in 3.0 mi SW 8.1 mph - N/A   Mostly Cloudy
8:15 AM 12.2 °F 0.7 °F 12.2 °F 100% 29.78 in 5.0 mi WSW 8.1 mph - N/A   Clear
8:35 AM 10.4 °F -3.3 °F 10.4 °F 100% 29.79 in 7.0 mi West 10.4 mph - N/A   Clear
8:55 AM 12.2 °F -1.0 °F 12.2 °F 100% 29.78 in 9.0 mi West 10.4 mph - N/A   Clear
9:15 AM 15.8 °F 2.1 °F 15.8 °F 100% 29.79 in 10.0 mi West 12.7 mph - N/A   Clear
9:35 AM 23.0 °F 10.6 °F 23.0 °F 100% 29.80 in 10.0 mi WNW 13.8 mph - N/A   Clear
9:55 AM 24.8 °F 12.4 °F 23.0 °F 93% 29.81 in 10.0 mi WNW 15.0 mph - N/A   Clear
10:15 AM 24.8 °F 11.9 °F 23.0 °F 93% 29.82 in 10.0 mi NW 16.1 mph - N/A   Clear
10:35 AM 24.8 °F 11.9 °F 23.0 °F 93% 29.83 in 10.0 mi NW 16.1 mph - N/A   Clear
10:55 AM 26.6 °F 13.4 °F 23.0 °F 86% 29.83 in 10.0 mi WNW 18.4 mph - N/A   Clear
11:15 AM 26.6 °F 14.7 °F 23.0 °F 86% 29.83 in 10.0 mi WNW 15.0 mph - N/A   Clear
11:35 AM 26.6 °F 13.4 °F 23.0 °F 86% 29.83 in 10.0 mi WNW 18.4 mph 23.0 mph N/A   Clear
11:55 AM 28.4 °F 15.4 °F 23.0 °F 80% 29.83 in 10.0 mi WNW 19.6 mph 24.2 mph N/A   Clear
12:15 PM 28.4 °F 15.4 °F 23.0 °F 80% 29.83 in 10.0 mi WNW 19.6 mph - N/A   Clear
12:35 PM 28.4 °F 15.1 °F 23.0 °F 80% 29.82 in 10.0 mi WNW 20.7 mph 25.3 mph N/A   Clear
12:55 PM 28.4 °F 15.1 °F 23.0 °F 80% 29.82 in 9.0 mi WNW 20.7 mph - N/A   Clear
1:15 PM 28.4 °F 15.4 °F 24.8 °F 86% 29.82 in 8.0 mi West 19.6 mph 26.5 mph N/A   Clear
1:35 PM 28.4 °F 14.7 °F 24.8 °F 86% 29.82 in 10.0 mi WNW 21.9 mph 26.5 mph N/A   Clear
1:55 PM 28.4 °F 15.1 °F 24.8 °F 86% 29.82 in 8.0 mi West 20.7 mph 29.9 mph N/A   Clear
2:15 PM 28.4 °F 14.1 °F 24.8 °F 86% 29.82 in 9.0 mi West 24.2 mph 27.6 mph N/A   Clear
2:35 PM 28.4 °F 13.8 °F 24.8 °F 86% 29.82 in 7.0 mi West 25.3 mph 29.9 mph N/A   Clear
2:55 PM 28.4 °F 14.4 °F 24.8 °F 86% 29.82 in 7.0 mi West 23.0 mph - N/A   Clear
3:15 PM 28.4 °F 14.1 °F 24.8 °F 86% 29.82 in 8.0 mi WNW 24.2 mph 27.6 mph N/A   Clear
3:35 PM 28.4 °F 15.1 °F 24.8 °F 86% 29.82 in 10.0 mi West 20.7 mph 26.5 mph N/A   Clear
3:55 PM 26.6 °F 12.7 °F 24.8 °F 93% 29.83 in 10.0 mi West 20.7 mph - N/A   Clear
4:15 PM 24.8 °F 11.5 °F 23.0 °F 93% 29.84 in 10.0 mi West 17.3 mph - N/A   Clear
4:35 PM 24.8 °F 10.7 °F 24.8 °F 100% 29.84 in 10.0 mi West 19.6 mph - N/A   Clear
4:55 PM 24.8 °F 10.7 °F 24.8 °F 100% 29.84 in 10.0 mi West 19.6 mph - N/A   Clear
5:15 PM 26.6 °F 13.1 °F 24.8 °F 93% 29.84 in 10.0 mi West 19.6 mph - N/A   Clear
5:35 PM 26.6 °F 12.7 °F 26.6 °F 100% 29.83 in 10.0 mi West 20.7 mph - N/A   Mostly Cloudy
5:55 PM 26.6 °F 12.7 °F 26.6 °F 100% 29.83 in 10.0 mi West 20.7 mph - N/A   Scattered Clouds
6:15 PM 26.6 °F 12.7 °F 26.6 °F 100% 29.82 in 10.0 mi West 20.7 mph 27.6 mph N/A   Clear
6:35 PM 28.4 °F 14.7 °F 28.4 °F 100% 29.81 in 10.0 mi West 21.9 mph 26.5 mph N/A   Clear
6:55 PM 28.4 °F 15.1 °F 28.4 °F 100% 29.81 in 10.0 mi West 20.7 mph 29.9 mph N/A   Clear
7:15 PM 30.2 °F 15.9 °F 30.2 °F 100% 29.81 in 5.0 mi WNW 26.5 mph 32.2 mph N/A   Scattered Clouds
7:35 PM 32.0 °F 17.9 °F 30.2 °F 93% 29.81 in 4.0 mi WNW 28.8 mph 36.8 mph N/A   Mostly Cloudy
7:55 PM 32.0 °F 18.6 °F 32.0 °F 100% 29.81 in 5.0 mi WNW 25.3 mph 36.8 mph N/A   Overcast
8:15 PM 32.0 °F 18.6 °F 32.0 °F 100% 29.82 in 4.0 mi WNW 25.3 mph 33.4 mph N/A Snow Light Snow
8:35 PM 32.0 °F 19.2 °F 32.0 °F 100% 29.82 in 5.0 mi WNW 23.0 mph 36.8 mph N/A   Overcast
8:55 PM 32.0 °F 17.2 °F 32.0 °F 100% 29.81 in 3.0 mi WNW 32.2 mph 39.1 mph N/A Rain Light Rain
9:15 PM 32.0 °F 18.9 °F 30.2 °F 93% 29.82 in 9.0 mi WNW 24.2 mph 29.9 mph N/A   Scattered Clouds
9:35 PM 32.0 °F 18.1 °F 32.0 °F 100% 29.82 in 1.8 mi WNW 27.6 mph 36.8 mph 0.03 in Snow Light Snow
9:55 PM 28.4 °F 14.7 °F 28.4 °F 100% 29.82 in 5.0 mi WNW 21.9 mph 32.2 mph 0.05 in Rain Light Freezing Rain
10:15 PM 30.2 °F 17.4 °F 28.4 °F 93% 29.83 in 10.0 mi WNW 20.7 mph - N/A   Scattered Clouds
10:35 PM 30.2 °F 16.8 °F 28.4 °F 93% 29.83 in 10.0 mi WNW 23.0 mph 29.9 mph N/A   Mostly Cloudy
10:55 PM 28.4 °F 13.3 °F 28.4 °F 100% 29.84 in 9.0 mi WNW 27.6 mph 35.7 mph N/A   Scattered Clouds
11:55 PM 26.6 °F 11.7 °F 26.6 °F 100% 29.85 in 6.0 mi WNW 24.2 mph 35.7 mph N/A   Partly Cloudy